Regional Weather Roundup
Issued by NWS

Home | Current Version | Previous Version | Graphics & Text | Print | Product List | Glossary On
Versions: 1 2 3 4 5 6 7 8 9 10 11 12 13 14 15 16 17 18 19 20 21 22 23 24 25 26 27 28 29 30 31 32 33 34 35 36 37 38 39 40 41 42 43 44 45 46 47 48 49 50
000
ASUS43 KMKX 231300
RWRWI

WISCONSIN REGIONAL WEATHER ROUNDUP
NATIONAL WEATHER SERVICE MILWAUKEE/SULLIVAN WI
800 AM CDT THU OCT 23 2014

NOTE: "FAIR" INDICATES FEW OR NO CLOUDS BELOW 12,000 FEET WITH NO
SIGNIFICANT WEATHER AND/OR OBSTRUCTIONS TO VISIBILITY.

WIZ001-002-006>008-014>016-023>028-231400-
NORTHWEST WISCONSIN

CITY           SKY/WX    TMP DP  RH WIND       PRES   REMARKS
SUPERIOR ARPT  CLOUDY    47  47  98 CALM      29.97S FOG
ASHLAND        LGT RAIN  47  46  97 S3        30.00S FOG
HAYWARD        CLOUDY    47  44  90 S6        30.00F
SIREN          CLOUDY    48  47  96 S6        29.99R
CUMBERLAND     CLOUDY    45  43  93 S6        30.00S
RICE LAKE      CLOUDY    47  44  87 SE7       30.03S
CHETEK         LGT RAIN  46  45  94 SE7       30.02S
LADYSMITH      RAIN      46  44  93 S8        30.05S
EAU CLAIRE     NOT AVBL
MENOMONIE      DRIZZLE   48  47  97 SE5       30.03S
NEW RICHMOND   CLOUDY    49  48  97 S6        30.00S FOG
OSCEOLA        CLOUDY    50  50 100 S5        30.01S
$$

WIZ003>005-009-010-017-018-231400-
NORTH CENTRAL WISCONSIN

CITY           SKY/WX    TMP DP  RH WIND       PRES   REMARKS
MANITOWISH WTR CLOUDY    43  40  90 S8        30.03F
ARBOR VITAE    CLOUDY    43  40  90 S9G17     30.04F
WOODRUFF       CLOUDY    43  40  90 S9G17     30.04F
RHINELANDER    CLOUDY    42  40  92 S6        30.07F
EAGLE RIVER    LGT RAIN  43  36  75 S5        30.05F
LAND O LAKES   CLOUDY    45  37  75 S5        30.06S
PHILLIPS       RAIN      44  40  86 S8        30.03F
TOMAHAWK       CLOUDY    40  39  95 CALM      30.07F FOG
MEDFORD        CLOUDY    41  38  91 SE8       30.06S
MERRILL        CLOUDY    41  41  97 S5        30.08S
$$

WIZ029-030-035-036-043>047-231400-
CENTRAL WISCONSIN

CITY           SKY/WX    TMP DP  RH WIND       PRES   REMARKS
WAUSAU         LGT RAIN  42  39  89 SE8       30.09S
MOSINEE        CLOUDY    41  41 100 S7        30.10F
MARSHFIELD     CLOUDY    44  40  85 S7        30.07F
STEVENS POINT  CLOUDY    39  37  93 SE5       30.12S
WAUPACA        CLOUDY    37  35  95 SE3       30.14F FOG
WAUTOMA        NOT AVBL
WISC RAPIDS    CLOUDY    42  39  89 S5        30.11F
CAMP DOUGLAS   NOT AVBL
$$

WIZ011>013-019>022-031-037>040-048>050-231400-
NORTHEAST WISCONSIN

CITY           SKY/WX    TMP DP  RH WIND       PRES   REMARKS
ANTIGO         DRIZZLE   38  36  94 S9        30.10F WCI  31
SHAWANO        PTCLDY    33  32  95 CALM      30.15F FOG
OCONTO           N/A     30  30 100 CALM      30.16F VSB 3/4
STURGEON BAY   CLEAR     41  37  87 S8        30.18S
GREEN BAY      CLEAR     39  35  86 S7        30.16F WCI  34
MANITOWOC      NOT AVBL
APPLETON       PTCLDY    39  36  87 S8        30.16S WCI  34
CLINTONVILLE   PTCLDY    32  32 100 CALM      30.14F FOG
OSHKOSH        PTCLDY    38  35  89 S10       30.15F WCI  31
$$

WIZ032>034-041-042-053>061-231400-
SOUTHWEST WISCONSIN

CITY           SKY/WX    TMP DP  RH WIND       PRES   REMARKS
LA CROSSE      CLOUDY    50  46  86 S8        30.05F
SPARTA         RAIN      46  42  84 CALM      30.07F
VIROQUA        CLOUDY    45  42  89 SE7       30.07F
BOSCOBEL       CLOUDY    49  38  65 CALM      30.10F
PRAIRIE DU CHI CLOUDY    51  38  62 E7        30.08F
PLATTEVILLE    CLOUDY    45  38  78 SE9       30.12F
$$

WIZ056-057-062-063-064-067-068-231400-
SOUTH CENTRAL WISCONSIN

CITY           SKY/WX    TMP DP  RH WIND       PRES   REMARKS
REEDSBURG      CLOUDY    46  37  71 S6        30.11F
BARABOO/DELLS  CLOUDY    44  35  70 S10       30.12F
LONE ROCK      NOT AVBL
MINERAL POINT  CLOUDY    45  36  70 SE9G17    30.11F
MADISON        MOCLDY    41  36  82 S9        30.16F
MIDDLETON      MOCLDY    42  36  76 S3        30.14F
WATERTOWN      CLEAR     35  35 100 CALM      30.17F FOG
MONROE         PTCLDY    37  36  93 S8        30.15F WCI  31
JANESVILLE     CLEAR     37  36  93 SE5       30.17F WCI  34
$$

WIZ051-052-058>065-066-070>072-231400-
SOUTHEAST WISCONSIN

CITY           SKY/WX    TMP DP  RH WIND       PRES   REMARKS
MILWAUKEE      MOCLDY    37  34  89 SW6       30.21R WCI  32
WAUKESHA       CLEAR     36  36 100 S3        30.20F FOG
MILWAUKEE/TIMM CLEAR     34  30  86 S3        30.21S
RACINE         PTCLDY    37  35  92 S5        30.22S FOG     WCI  33
BURLINGTON     CLEAR     25  25  99 CALM      30.20S FOG
KENOSHA        PTCLDY    37  36  96 S5        30.21R FOG     WCI  33
FOND DU LAC    PTCLDY    38  34  85 S9        30.16F WCI  31
SHEBOYGAN      CLEAR     36  35  96 SW3       30.19S FOG
WEST BEND      CLEAR     32  32 100 CALM      30.19S FOG
JUNEAU         PTCLDY    37  34  90 SE8       30.18F WCI  31
$$

LSZ147-162-231400-
LAKE SUPERIOR

STATION/POSITION TIME  TEMP    WIND        PRES    WAVE
                       AIR SEA DIR/SP/G            HT/PER
                 (UTC) (F)     (DEG/KT/KT) (MB)    (FT/S)
W MID LAKE BUOY  1150   48 46  160/ 12/ 14 1016.4F   2/ 3
DEVILS ISLAND    1200   49     170/  6/  8 1015.9F
PORT WING        1200   49     180/  4/  8 1015.2F
SAXON HARBOR     1200   51     200/  5/ 11 1015.9S
$$

LMZ867-665-643>646-231400-
LAKE MICHIGAN

STATION/POSITION TIME  TEMP    WIND        PRES    WAVE
                       AIR SEA DIR/SP/G            HT/PER
                 (UTC) (F)     (DEG/KT/KT) (MB)    (FT/S)
CHAMBERS ISLAND  1200   46     160/  6/ 11 1021.7F
N MID LAKE BUOY  1150   48 51  210/ 14/ 17 1022.5F   3/ 4
NORTHPORT PIER   1200   44     170/  2/  4 1021.7F
SISTER BAY       1113             CALM       N/A
ALGOMA LAKESHORE 1041          230/  9/ 11   N/A
KEWAUNEE LAKESHO 1200   44     180/  8/  9 1021.2F
SHEBOYGAN LAKESH 1200   42 50  210/  8/  9 1023.2F
PORT WASHINGTON  1200   41     210/  2/  5 1023.4S
ATWATER BUOY     1200   45     180/ 10/ 12 1023.6F
MILWAUKEE LAKESH 1200   42     230/  9/ 10   N/A
S MID LAKE BUOY  1150   50 54  190/ 14/ 16 1023.6R   2/ 4
KENOSHA   LAKESH 1200   41     190/  5/  8 1022.7F
$$

TC  - TEMPERATURE IN CELSIUS
VSB - VISIBILITY IN STATUTE MILES
WCI - WIND CHILL INDEX
HX  - HEAT INDEX




USA.gov is the U.S. government's official web portal to all federal, state and local government web resources and services.